DW5846 Weather Reports


time (UTC)temp
C
wind
direction
speed
KPH
gust
KPH
rain 1hr
cm
rain 24hr
cm
rain mn
cm
humidity
%
barometer
mb
20260906183112 32 221 0.0 6.4 0.00 0.00 0.00 62 1010.5
20260906181555 31 208 1.6 9.7 0.00 0.00 0.00 67 1010.5
20260906180112 31 261 0.0 8.0 0.00 0.00 0.00 66 1010.7
20260906174547 31 128 1.6 4.8 0.00 0.00 0.00 64 1010.9
20260906173044 31 138 1.6 9.7 0.00 0.00 0.00 66 1011.1
20260906171541 30 260 1.6 8.0 0.00 0.00 0.00 71 1011.3
20260906170040 30 124 1.6 8.0 0.00 0.00 0.00 71 1011.4
20260906164534 29 125 0.0 3.2 0.00 0.00 0.00 73 1011.9
20260906163034 29 75 1.6 4.8 0.00 0.00 0.00 74 1011.8
20260906161528 28 208 0.0 3.2 0.00 0.00 0.00 76 1011.8
20260906160026 28 231 0.0 1.6 0.00 0.00 0.00 77 1012.0
20260906154521 27 231 0.0 3.2 0.00 0.00 0.00 78 1012.2
20260906153020 27 231 0.0 1.6 0.00 0.00 0.00 80 1012.3
20260906151528 26 230 0.0 11.3 0.00 0.00 0.00 80 1011.9
20260906150019 27 242 1.6 4.8 0.00 0.00 0.00 78 1011.7
20260906144518 27 125 0.0 4.8 0.00 0.00 0.00 78 1011.3
20260906143015 27 104 0.0 3.2 0.00 0.00 0.00 79 1011.3
20260906141516 26 130 0.0 3.2 0.00 0.00 0.00 80 1011.5
20260906140022 26 110 0.0 6.4 0.00 0.00 0.00 82 1011.5
20260906134509 25 127 0.0 4.8 0.00 0.00 0.00 84 1011.6
20260906133008 25 79 0.0 3.2 0.00 0.00 0.00 85 1011.8
20260906131507 -17 0.0 0.0 0.00 0.00 0.00 1011.8
20260906130002 -17 0.0 0.0 0.00 0.00 0.00 1011.5
20260906124558 -17 0.0 0.0 0.00 0.00 0.00 1011.3
20260906123054 -17 0.0 0.0 0.00 0.00 0.00 1011.1
20260906121556 -17 0.0 0.0 0.00 0.00 0.00 1010.9
20260906120045 -17 0.0 0.0 0.00 0.00 0.00 1010.8
20260906114551 -17 215 0.0 0.0 0.00 0.00 0.00 1010.7
20260906113051 22 218 0.0 0.0 0.00 0.00 0.00 90 1010.5
20260906111538 22 217 0.0 1.6 0.00 0.00 0.00 90 1010.5
20260906110038 22 218 0.0 0.0 0.00 0.00 0.00 91 1010.5
20260906104537 22 218 0.0 0.0 0.00 0.00 0.00 90 1010.6
20260906103036 22 218 0.0 0.0 0.00 0.00 0.00 90 1010.5
20260906101534 22 218 0.0 0.0 0.00 0.00 0.00 90 1010.2
20260906100033 22 218 0.0 0.0 0.00 0.00 0.00 89 1010.1
20260906094534 22 218 0.0 0.0 0.00 0.00 0.00 89 1010.0
20260906093032 22 218 0.0 0.0 0.00 0.00 0.00 88 1010.2
20260906091533 23 218 0.0 0.0 0.00 0.00 0.00 87 1010.2
20260906090029 23 218 0.0 0.0 0.00 0.00 0.00 87 1010.1
20260906084528 23 218 0.0 0.0 0.00 0.00 0.00 87 1010.2
20260906083023 23 218 0.0 0.0 0.00 0.00 0.00 86 1010.1
20260906081537 23 218 0.0 1.6 0.00 0.00 0.00 86 1010.0
20260906080022 23 218 0.0 1.6 0.00 0.00 0.00 86 1009.9
20260906074522 24 218 0.0 0.0 0.00 0.00 0.00 86 1009.9
20260906073019 24 218 0.0 1.6 0.00 0.00 0.00 85 1009.9
20260906071516 24 219 0.0 1.6 0.00 0.00 0.00 85 1010.1
20260906070015 24 219 0.0 0.0 0.00 0.00 0.00 85 1010.3
20260906064515 24 219 0.0 1.6 0.00 0.00 0.00 85 1010.2
20260906063013 25 219 0.0 0.0 0.00 0.00 0.00 84 1010.4
20260906061511 25 219 0.0 1.6 0.00 0.00 0.00 84 1010.4
20260906060016 25 220 0.0 1.6 0.00 0.00 0.00 83 1010.4
20260906054506 25 79 0.0 1.6 0.00 0.00 0.00 82 1010.5
20260906053003 26 79 0.0 1.6 0.00 0.00 0.00 81 1010.4
20260906051503 26 77 0.0 3.2 0.00 0.00 0.00 81 1010.3
20260906050100 26 78 0.0 3.2 0.00 0.00 0.00 81 1010.3
20260906050004 26 78 0.0 3.2 0.00 0.00 0.00 81 1010.3
20260906044600 26 81 0.0 4.8 0.00 0.00 0.00 81 1010.2
20260906043058 26 79 0.0 3.2 0.00 0.00 0.00 82 1010.2
20260906041558 26 55 1.6 8.0 0.00 0.00 0.00 82 1010.2
20260906040157 26 54 0.0 1.6 0.00 0.00 0.00 83 1010.3
20260906034557 26 54 0.0 1.6 0.00 0.00 0.00 82 1010.1
20260906033056 26 54 0.0 1.6 0.00 0.00 0.00 82 1010.1
20260906031602 27 54 0.0 6.4 0.00 0.00 0.00 80 1009.9
20260906030056 27 64 1.6 4.8 0.00 0.00 0.00 80 1009.6
20260906024555 27 64 1.6 9.7 0.00 0.00 0.00 79 1009.4
20260906023054 27 36 0.0 8.0 0.00 0.00 0.00 79 1009.1
20260906021553 28 78 1.6 4.8 0.00 0.00 0.00 79 1008.9
20260906020101 28 57 1.6 4.8 0.00 0.00 0.00 78 1008.7
20260906014552 28 88 1.6 3.2 0.00 0.00 0.00 78 1008.3
20260906013051 28 91 0.0 1.6 0.00 0.00 0.00 76 1008.3
20260906011551 29 92 0.0 0.0 0.00 0.00 0.00 75 1008.0
20260906010050 30 92 0.0 3.2 0.00 0.00 0.00 73 1008.0
20260906004550 30 95 0.0 3.2 0.00 0.00 0.00 71 1007.7
20260906003049 31 88 0.0 4.8 0.00 0.00 0.00 70 1007.7
20260906001548 31 119 0.0 1.6 0.00 0.00 0.00 68 1007.8
20260906000048 32 120 0.0 1.6 0.00 0.00 0.00 67 1007.9
20260905234548 33 120 0.0 3.2 0.00 0.00 0.00 64 1007.9
20260905233049 34 124 1.6 6.4 0.00 0.00 0.00 60 1007.7
20260905231546 35 138 0.0 4.8 0.00 0.00 0.00 59 1007.6
20260905230051 35 143 0.0 4.8 0.00 0.00 0.00 58 1007.6
20260905224559 35 130 0.0 4.8 0.00 0.00 0.00 60 1007.5
20260905223042 35 115 1.6 8.0 0.00 0.00 0.00 59 1007.4
20260905221555 34 89 1.6 11.3 0.00 0.00 0.00 58 1007.3
20260905220041 34 154 0.0 8.0 0.00 0.00 0.00 62 1007.5
20260905214535 33 69 4.8 12.9 0.00 0.00 0.00 61 1007.6
20260905213031 33 124 6.4 19.3 0.00 0.00 0.00 63 1008.0
20260905211530 32 87 3.2 14.5 0.00 0.00 0.00 62 1008.0
20260905210029 32 62 4.8 12.9 0.00 0.00 0.00 60 1008.4
20260905204531 33 145 1.6 9.7 0.00 0.00 0.00 61 1008.6
20260905203025 32 76 3.2 16.1 0.00 0.00 0.00 63 1009.0
20260905201524 32 62 4.8 12.9 0.00 0.00 0.00 63 1009.3
20260905200025 32 85 6.4 14.5 0.00 0.00 0.00 63 1009.6
20260905194523 32 74 4.8 16.1 0.00 0.00 0.00 65 1009.7
20260905193026 31 15 4.8 16.1 0.00 0.00 0.00 65 1009.7
20260905191522 31 40 3.2 14.5 0.00 0.00 0.00 66 1010.3
20260905190024 31 51 6.4 19.3 0.00 0.00 0.00 66 1010.8
20260905184525 31 351 6.4 19.3 0.00 0.00 0.00 66 1011.0